Location: Prairie View Elementary School
(39.8322°N, 99.5698°W)
Time: 19:38:29
(UTC+00:00)

Cosmos 2026 Rocket - Pass Details

Date: 08 December 2019
Orbit: 940 x 1000 km, 82.9° (Epoch: 24 January)

Event Time Altitude Azimuth Distance (km) Brightness Sun altitude
Rises 01:23:12 0° 194° (SSW) 3,604 7.3 -24.2°
Reaches altitude 10° 01:25:42 10° 197° (SSW) 2,657 6.6 -24.7°
Maximum altitude 01:31:43 65° 279° (W) 1,029 4.2 -25.8°
Drops below altitude 10° 01:37:45 10° 1° (N) 2,664 6.2 -27.0°
Enters shadow 01:39:29 - 4° (N) 3,315 6.7 -27.3°
